GFSGBSN_925_temp_186.txt.gz
Temp
14 14 14 14 15 15 14 14 14 14 14 15 15 15 15 15 15 15 16 16 16 16 16 16 16 16 17 22 25 25 24 25 25 26 27 28 28 29 28 29 30 30 31 32 32 31 31
14 14 14 14 14 14 15 14 14 14 14 14 14 14 14 14 14 15 15 16 16 16 16 16 16 16 18 21 26 26 25 25 26 27 28 29 28 28 27 29 29 30 30 30 31 31 31
15 15 14 14 14 14 14 14 14 14 14 13 14 14 14 14 14 15 15 16 16 17 17 16 16 14 18 21 24 25 25 25 26 26 28 27 27 27 27 27 29 29 28 29 30 31 31
15 15 15 15 14 14 14 14 14 14 13 13 13 13 13 14 14 14 15 16 16 17 17 17 16 15 19 23 24 24 26 26 26 26 26 27 26 26 26 28 27 27 29 28 31 32 31
14 14 15 15 14 14 14 14 13 13 13 13 13 13 13 14 14 14 15 16 17 18 17 17 16 18 21 24 25 25 25 25 26 26 26 26 26 26 27 26 26 28 28 29 31 32 31
14 14 14 14 14 14 13 13 13 13 13 13 13 13 13 13 13 14 15 16 19 17 18 16 18 19 22 25 26 25 24 24 25 25 26 26 26 25 27 27 26 28 28 29 29 31 29
14 14 14 14 14 13 13 13 13 13 13 13 13 12 12 13 13 14 15 17 22 20 20 21 22 23 23 24 24 24 24 25 25 25 23 26 25 25 28 29 28 27 27 27 28 30 29
14 14 14 14 13 13 13 13 13 13 13 12 12 12 12 12 13 14 14 19 18 16 16 20 21 22 23 23 22 24 24 23 24 23 25 25 24 27 28 27 26 26 26 26 27 29 28
14 14 14 13 13 13 13 13 13 13 12 11 11 12 12 13 14 14 17 17 16 16 16 20 23 23 23 22 22 24 24 24 24 24 25 25 27 27 26 26 25 25 25 25 25 26 26
13 13 13 13 12 12 12 12 12 11 11 11 11 11 12 13 12 17 18 16 15 15 16 22 22 22 22 22 22 24 24 24 24 24 26 26 27 25 25 25 26 24 26 26 25 24 23
13 12 12 12 12 12 11 11 11 11 11 11 11 11 12 12 13 18 16 15 15 15 17 23 22 22 23 22 23 24 24 24 23 25 24 24 24 24 23 25 26 24 25 25 24 23 23
12 12 12 12 12 11 11 10 10 10 10 10 11 11 12 12 14 15 14 14 15 16 17 22 23 22 22 23 24 25 24 23 24 23 24 24 26 26 25 25 25 25 24 24 24 24 22
11 11 11 11 11 10 10 10 10 10 10 10 10 11 11 13 15 13 13 15 16 16 23 23 22 22 23 23 23 23 24 24 23 22 23 25 26 27 26 23 24 24 23 21 21 22 22
10 10 10 10 10 10 10 10 10 10 10 10 10 10 11 13 13 12 13 16 14 20 21 22 21 21 21 23 23 23 23 23 25 24 23 21 22 26 25 23 23 23 23 21 19 20 21
10 10 10 9 9 9 9 9 9 9 9 9 10 11 12 12 11 11 15 14 17 19 21 21 21 20 21 23 21 22 22 22 23 24 21 21 21 25 24 24 23 22 21 23 21 22 20
9 9 9 9 9 9 9 9 9 9 9 10 11 12 13 11 10 12 14 14 17 20 20 19 18 20 20 22 22 21 21 22 22 22 22 20 18 22 23 24 23 22 22 20 21 18 18
8 8 9 9 9 9 9 9 8 9 9 9 10 12 10 11 11 13 12 14 17 19 19 17 17 18 19 19 20 20 21 22 22 21 22 21 19 18 20 20 20 21 21 21 21 20 18
8 8 8 9 9 9 9 8 8 8 8 8 11 10 10 10 11 13 13 15 16 17 19 17 16 16 16 18 18 19 19 20 21 20 18 19 18 16 18 20 21 20 20 20 18 18 18
8 8 8 9 9 9 9 9 8 8 8 9 10 11 9 10 10 12 14 15 16 16 17 17 16 17 17 16 16 17 18 19 19 18 17 17 16 15 17 19 21 20 20 19 18 19 17
8 8 8 9 9 8 8 8 8 8 8 8 9 8 8 9 12 12 13 14 14 16 16 16 16 16 16 15 16 15 16 18 18 17 14 15 15 14 13 15 17 17 18 18 18 15 16
8 7 7 7 7 7 7 7 7 8 7 7 7 7 8 7 8 11 12 13 13 14 13 14 14 14 14 13 14 15 16 17 17 17 16 16 14 15 15 16 17 18 18 18 18 17 16
6 6 6 6 6 6 6 7 7 7 6 6 4 6 7 10 10 10 11 11 12 13 14 13 13 14 14 14 14 14 15 14 14 16 15 15 11 13 14 16 17 16 17 18 18 18 18
5 5 5 6 6 6 6 6 6 6 6 4 4 5 7 7 10 8 11 12 12 13 14 13 14 13 13 13 11 13 13 14 14 14 14 14 12 11 11 14 15 13 15 16 17 18 18
4 5 5 5 5 5 5 5 5 5 5 5 4 5 5 7 7 8 10 11 11 12 11 12 12 11 13 13 13 14 14 14 14 14 15 13 13 12 12 13 10 14 17 17 17 18 17
4 5 4 4 4 4 4 4 4 5 4 5 5 5 5 7 8 9 8 8 8 8 7 9 9 10 12 11 11 11 12 12 13 14 15 15 14 12 11 11 13 15 16 17 16 14 13
4 4 4 4 3 3 3 3 4 4 4 5 5 5 5 6 7 7 7 7 7 7 8 10 12 13 13 11 10 9 10 12 13 15 17 16 15 12 11 11 11 15 15 14 13 12 15
4 4 3 3 3 3 3 3 3 4 4 5 7 5 4 5 7 9 8 9 10 10 10 11 11 12 13 9 9 9 10 13 12 12 14 14 14 11 12 11 11 15 14 16 12 13 15
4 3 3 3 3 3 3 3 3 4 5 5 6 6 7 6 9 9 10 9 10 9 7 9 9 10 10 7 7 9 9 12 12 14 14 13 12 12 10 10 11 14 14 12 15 16 16
3 3 3 3 3 3 3 3 3 4 4 5 7 6 6 8 9 8 7 7 8 9 8 9 9 9 7 6 8 7 8 8 8 10 15 10 12 11 12 11 12 11 11 14 16 16 16

GFSGBSN_925_temp_189.txt.gz
Temp
15 15 15 14 14 14 14 15 15 15 15 15 15 15 15 15 15 16 16 16 16 17 17 17 16 16 17 18 21 25 25 25 25 25 25 25 25 24 24 24 24 26 26 27 26 26 27
15 15 15 14 14 14 14 14 14 14 15 15 15 15 15 15 15 15 16 16 17 17 17 16 16 16 16 17 24 24 24 25 25 26 26 26 26 25 24 24 24 26 25 25 26 26 26
15 15 15 15 14 14 14 14 14 14 14 14 14 14 14 14 14 15 15 15 16 17 17 17 16 15 15 17 24 24 24 25 25 26 25 26 26 23 23 24 25 25 24 24 26 26 26
15 15 15 15 15 14 15 14 14 14 14 14 12 12 13 13 14 14 15 16 17 17 17 17 16 15 15 22 23 23 25 25 25 25 26 26 26 24 23 24 24 23 23 23 26 26 26
15 15 15 15 15 14 15 14 14 14 14 13 13 13 13 13 13 14 14 16 18 18 18 17 16 15 17 23 24 25 25 24 24 24 25 25 25 23 23 22 21 22 21 23 25 27 26
15 15 15 15 15 14 14 14 14 14 14 13 13 13 13 13 13 14 15 17 20 18 19 16 16 16 19 23 24 23 23 24 23 23 23 23 22 21 20 20 20 22 23 23 24 26 27
15 15 14 14 14 14 14 14 14 13 13 13 13 13 13 13 13 14 15 16 17 16 17 19 19 20 21 22 23 23 23 23 23 22 20 21 20 19 21 22 24 24 23 22 23 25 25
15 15 15 14 14 14 14 14 13 13 13 13 13 13 13 13 13 14 14 13 16 15 13 17 18 19 20 21 20 22 24 22 21 20 21 20 20 22 24 25 25 24 23 21 23 25 24
15 15 15 15 14 14 13 13 13 13 13 13 13 13 13 13 14 14 16 16 16 15 13 17 20 21 22 22 21 21 23 23 21 20 21 20 22 25 24 24 24 23 22 22 22 22 22
16 15 15 15 14 14 13 13 13 13 13 12 12 12 12 13 14 16 16 16 15 15 12 18 21 22 21 22 20 23 24 23 22 22 22 22 24 24 24 23 23 21 23 23 22 20 18
15 15 15 14 14 13 13 13 13 12 12 12 12 12 12 13 13 15 15 15 15 14 13 22 21 21 23 21 21 22 24 22 20 22 23 21 22 23 22 23 23 22 23 22 22 20 18
15 15 15 14 13 13 13 12 12 12 11 12 11 12 12 13 13 14 15 14 14 12 13 21 21 21 20 21 22 22 22 22 22 21 22 21 22 22 22 24 24 23 22 20 20 19 17
14 14 14 13 13 12 12 11 11 11 11 11 11 11 12 12 13 13 14 13 11 11 20 21 21 22 21 21 22 23 22 20 19 19 19 21 22 22 23 22 23 22 19 15 16 16 17
13 13 13 13 12 11 10 10 10 10 10 10 10 11 12 12 13 13 13 12 12 17 18 22 21 21 20 21 21 22 21 19 21 21 19 19 17 22 22 22 21 21 19 16 16 15 17
13 12 12 11 10 9 9 9 9 9 9 10 10 10 11 12 12 12 10 8 12 16 19 19 19 19 19 20 20 21 20 19 20 21 19 18 19 21 21 21 22 20 18 20 18 17 15
11 10 10 10 9 9 9 9 9 9 9 10 10 11 12 12 12 12 10 11 15 18 19 18 17 19 17 18 18 19 19 21 21 21 20 19 16 19 20 20 20 20 20 17 17 16 16
10 10 10 9 9 9 8 8 8 8 8 9 10 10 10 11 12 10 7 11 15 17 17 17 16 16 16 16 17 16 19 20 21 20 18 18 16 17 18 17 18 18 18 18 18 17 16
10 9 8 9 9 9 9 8 8 8 8 8 10 8 10 11 8 9 9 13 14 15 17 17 16 15 15 15 15 15 16 18 18 17 16 17 15 14 16 18 18 18 17 17 15 15 13
8 8 8 8 8 8 9 8 8 8 8 9 8 8 9 10 8 9 11 13 14 14 14 16 15 15 15 14 13 15 15 17 17 17 16 16 14 12 14 16 17 17 17 17 16 15 13
8 8 8 7 8 8 8 8 8 8 9 10 8 7 7 8 9 10 11 11 12 14 15 15 15 15 14 14 14 14 14 16 16 16 14 15 14 12 11 13 14 14 15 16 16 14 14
8 8 8 8 7 8 8 8 9 9 8 9 6 7 8 7 7 9 10 11 11 12 14 14 13 13 13 12 13 13 14 14 15 16 14 14 12 13 14 14 14 14 14 15 15 16 14
7 7 7 8 8 8 8 8 9 8 7 7 5 6 7 8 9 9 9 10 10 11 12 13 12 12 13 12 12 12 13 13 12 13 13 12 11 11 11 13 13 13 15 15 15 15 15
7 7 7 7 7 7 8 8 8 7 7 5 4 6 6 6 7 7 8 9 11 11 12 13 12 11 11 12 10 10 10 11 12 11 11 12 10 9 9 12 12 9 11 14 14 15 14
6 6 6 6 6 7 7 7 7 7 6 6 5 6 5 5 6 7 9 10 10 10 9 11 10 10 9 9 10 10 10 10 12 12 12 11 11 11 10 11 9 12 15 15 14 15 13
5 5 5 5 5 5 5 5 6 6 5 6 5 5 5 6 6 8 9 7 7 7 8 8 9 9 8 9 7 9 9 10 11 12 12 13 12 10 9 9 11 12 14 14 13 13 11
4 4 4 4 5 5 5 5 5 5 5 5 5 6 5 5 5 7 6 6 6 6 7 8 8 8 9 8 7 7 8 10 11 13 13 13 12 10 9 9 10 13 14 14 12 10 11
3 3 4 4 4 4 4 4 4 4 5 5 6 5 4 5 5 7 6 7 8 7 7 8 8 8 9 5 6 7 7 11 9 10 10 10 9 9 9 9 10 12 13 13 10 10 10
3 4 4 4 4 3 4 4 4 4 5 5 5 5 5 4 6 8 9 7 8 7 5 6 6 7 7 6 6 6 6 8 8 10 10 10 9 8 8 9 8 10 11 10 8 8 7
3 3 4 3 3 3 3 3 4 4 5 5 5 6 6 5 6 8 8 7 7 8 6 7 7 7 5 4 4 5 5 6 7 7 10 8 9 8 9 8 10 9 9 10 10 10 11

GFSGBSN_925_temp_195.txt.gz
Temp
14 15 15 15 15 15 15 15 15 15 15 15 15 15 15 15 15 15 15 16 16 17 17 16 16 16 16 15 17 23 23 23 24 24 23 22 22 22 22 21 21 22 23 22 22 21 22
15 15 14 15 14 15 15 15 15 15 15 15 15 15 15 14 14 15 15 16 17 17 17 17 16 16 15 15 22 23 22 23 23 24 23 23 23 23 22 22 21 22 21 21 21 22 22
15 15 14 15 15 14 15 15 14 15 15 15 15 15 15 15 14 14 15 16 17 17 17 17 16 14 13 16 22 22 22 23 23 23 23 23 23 23 22 21 22 22 21 21 22 23 23
15 15 15 15 15 15 15 15 15 14 15 14 15 15 15 14 14 14 15 16 17 18 18 17 15 12 13 21 20 22 22 23 24 23 23 24 24 23 22 22 20 21 21 20 23 23 24
15 15 15 15 15 15 15 15 15 14 15 14 14 14 14 14 14 13 15 16 18 18 18 17 14 14 15 20 21 22 22 23 23 24 24 24 23 21 21 20 18 18 19 21 21 23 23
15 15 15 15 15 15 15 15 15 15 15 15 14 14 14 14 13 13 15 16 19 18 17 16 15 15 18 20 20 20 22 22 22 21 21 22 17 18 17 17 18 19 20 19 19 21 21
15 15 15 15 15 15 15 15 15 15 15 15 14 14 13 12 13 14 15 16 14 15 15 17 17 17 19 19 20 20 21 21 21 20 19 19 18 17 18 18 20 19 19 18 18 20 22
16 15 15 15 15 15 15 15 15 15 15 15 14 13 13 13 13 14 13 13 14 14 12 15 15 15 17 17 16 18 20 19 20 18 19 18 17 18 19 19 18 18 18 18 19 21 21
16 16 16 15 15 15 15 15 15 15 15 15 14 14 13 13 13 14 13 15 15 15 12 14 15 16 18 17 17 17 20 20 20 19 18 17 19 20 19 19 19 18 18 19 20 20 19
15 16 16 16 15 15 15 15 15 15 15 14 14 14 13 12 13 14 14 14 15 14 11 15 18 19 20 19 19 20 21 21 20 19 19 17 19 20 20 19 19 19 20 20 20 19 17
15 15 16 16 16 16 15 15 15 15 15 14 14 13 13 12 14 13 14 15 15 14 13 19 19 21 20 19 19 21 22 20 19 20 20 18 20 20 21 21 22 19 21 21 21 19 17
14 15 15 16 16 15 15 15 15 15 14 14 14 13 12 12 12 14 14 15 15 12 13 18 19 19 19 19 20 20 21 21 20 19 18 18 19 20 19 21 20 21 20 19 15 16 15
14 14 15 15 15 16 15 15 15 14 14 14 14 13 11 12 12 14 14 14 12 12 17 19 19 19 18 19 19 19 19 19 18 18 17 17 19 19 20 20 19 19 17 15 15 15 16
13 13 14 14 14 15 15 15 15 14 14 14 14 11 10 11 12 13 14 12 11 14 15 18 17 18 19 19 19 19 19 17 18 17 15 16 16 20 20 19 19 19 17 15 16 14 15
12 13 13 13 14 14 13 13 14 14 14 13 12 8 8 10 11 13 12 9 11 13 17 15 17 17 18 17 17 16 16 17 16 15 17 16 16 19 19 19 19 19 17 17 16 15 14
11 11 13 13 13 13 13 13 13 13 12 11 8 7 8 10 10 11 11 10 13 15 15 15 16 16 15 15 16 15 16 17 16 16 16 16 14 17 18 19 18 18 18 16 14 15 14
10 11 11 12 13 12 12 13 13 12 10 9 8 9 8 9 10 9 9 9 13 14 13 14 14 15 15 15 15 15 16 16 16 16 16 16 14 15 16 17 16 15 15 16 15 13 14
10 10 10 11 11 11 12 12 12 10 9 8 7 8 8 9 7 6 8 9 13 13 12 13 13 14 14 14 14 14 14 16 15 15 13 14 13 11 14 16 16 16 15 15 12 15 11
10 10 10 11 11 11 11 11 11 9 10 9 8 8 7 9 8 7 8 10 11 12 12 12 12 14 14 14 13 13 14 15 14 14 14 14 11 10 13 14 14 14 14 14 14 13 12
11 11 12 11 10 11 11 11 10 9 9 11 7 6 7 7 7 8 9 9 8 12 12 12 12 13 12 12 13 12 13 14 14 14 14 14 11 11 11 12 12 13 14 14 13 11 12
12 11 10 10 11 11 11 10 9 8 9 10 6 6 7 7 7 8 10 8 8 8 10 12 11 12 12 11 11 11 12 12 13 14 13 13 12 12 12 13 13 13 12 12 12 12 11
12 10 10 10 10 11 10 9 7 7 8 7 5 6 6 7 8 8 8 7 8 8 8 10 11 12 11 10 11 10 11 11 10 12 11 11 11 11 11 12 12 11 12 11 10 11 11
11 10 10 10 10 9 8 7 7 7 8 5 5 5 6 6 6 6 7 8 8 8 9 11 11 10 9 10 10 10 10 10 10 10 9 10 9 9 9 11 10 9 10 11 11 12 12
10 9 9 8 7 7 7 7 7 7 8 7 5 6 5 6 6 6 8 8 8 9 9 9 9 9 9 9 9 9 8 8 8 8 9 9 9 9 9 9 9 11 12 12 11 11 11
8 7 7 7 7 7 7 7 6 6 7 7 6 6 5 6 6 7 8 8 7 7 7 8 8 9 7 8 7 7 7 8 8 8 9 9 9 9 9 9 9 11 11 11 11 11 11
7 7 7 6 6 6 6 6 5 6 6 7 7 7 5 5 6 8 7 7 5 5 6 7 8 7 7 6 6 7 8 8 9 9 10 9 9 8 8 8 8 11 11 11 11 9 9
6 6 6 6 6 6 6 6 6 6 6 7 6 7 6 4 5 7 6 6 6 6 5 6 7 6 6 6 5 6 6 8 7 9 9 7 7 8 8 8 7 8 7 10 9 9 8
5 6 6 6 6 6 6 6 5 6 6 6 5 6 6 4 5 7 7 6 6 5 4 5 5 4 4 3 4 4 5 6 6 7 8 8 6 6 7 7 7 6 8 8 8 8 8
4 4 4 4 4 5 5 5 5 5 6 7 5 5 7 4 5 6 7 8 8 7 4 4 5 4 4 2 2 2 5 3 5 5 7 6 7 6 6 5 7 7 6 7 8 8 9

GFSGBSN_925_temp_198.txt.gz
Temp
14 14 15 15 15 15 15 15 14 15 15 15 15 15 15 15 15 16 16 17 17 17 17 17 16 16 17 15 16 22 22 23 24 23 22 21 22 21 22 21 21 21 22 21 21 20 19
14 14 14 15 15 15 15 15 15 15 15 15 15 15 15 14 15 15 15 16 17 17 17 17 16 16 15 16 21 22 22 23 23 23 23 22 22 22 21 21 21 21 20 20 20 21 20
15 15 15 15 15 15 15 15 15 15 15 15 15 15 14 14 14 14 15 16 17 18 17 17 17 15 14 17 21 21 22 23 23 23 22 23 22 22 21 21 21 21 20 20 22 22 23
15 15 15 15 15 15 15 15 15 15 15 15 15 15 14 14 14 15 15 16 17 18 17 17 16 13 14 20 20 20 22 23 23 23 23 23 23 22 22 21 20 20 19 19 21 21 23
15 15 15 15 15 15 15 15 15 15 15 15 15 15 14 14 14 15 15 16 18 18 16 16 14 13 15 19 20 21 21 21 22 22 23 23 22 20 20 19 17 17 18 20 20 21 21
15 15 15 15 15 15 15 15 15 15 15 15 15 15 14 14 14 15 15 17 19 17 16 15 14 14 17 19 20 20 21 21 21 20 20 21 16 17 15 17 18 19 19 19 18 19 19
15 15 15 15 15 15 15 15 15 15 15 15 15 15 14 13 13 14 15 17 14 15 15 17 17 17 18 18 18 19 20 20 20 19 18 18 17 16 17 17 19 19 18 17 17 19 20
15 15 15 15 15 15 15 15 15 15 15 15 15 14 14 13 14 14 14 13 14 14 12 14 14 14 16 16 15 17 19 18 19 18 18 17 16 17 18 18 18 18 17 16 17 18 19
15 15 15 15 15 15 15 15 15 15 15 15 15 14 13 13 13 13 14 15 14 14 12 14 14 15 17 16 16 17 19 19 19 18 17 17 19 18 18 18 17 17 17 17 17 19 18
15 15 15 15 15 15 15 15 15 15 15 15 14 14 13 13 13 13 14 15 14 14 11 15 17 18 17 17 19 19 20 20 19 19 18 17 18 19 19 18 17 18 18 18 18 18 16
14 14 15 15 15 15 15 15 15 15 15 15 14 13 13 12 14 13 15 15 14 14 13 19 19 20 19 19 19 19 20 20 19 19 19 18 19 20 20 20 19 19 20 20 19 17 16
13 14 14 14 15 15 15 15 16 15 15 15 14 14 12 11 12 14 15 15 15 13 14 17 19 19 19 19 19 20 20 20 19 19 17 17 18 19 19 20 19 20 20 17 14 15 15
12 13 13 14 14 15 15 15 15 16 15 14 14 13 12 12 11 13 13 13 12 12 17 18 18 18 18 18 19 19 19 18 17 17 17 17 18 19 19 19 19 18 16 15 15 14 16
11 11 12 13 13 14 14 15 15 15 15 15 14 13 12 12 12 13 12 10 11 14 14 17 17 18 18 17 18 17 18 16 17 17 14 15 15 19 19 19 19 17 17 15 16 15 15
10 11 11 12 13 13 13 14 14 14 14 14 13 10 9 9 11 11 10 10 15 13 16 16 17 17 17 16 17 17 17 16 15 15 16 15 15 17 19 19 19 18 16 17 16 14 13
10 10 11 11 12 13 13 13 13 13 14 13 10 8 8 8 9 9 11 15 13 15 15 15 16 16 15 15 16 15 16 16 15 16 15 15 13 15 17 18 17 17 17 16 14 15 14
9 10 11 11 11 12 12 13 13 12 12 12 8 9 8 8 9 9 11 12 12 14 15 14 15 14 15 14 15 14 16 15 16 15 14 14 12 14 15 16 16 15 15 15 15 13 14
9 9 10 10 10 11 11 12 12 12 12 10 8 10 7 8 9 9 10 11 13 13 13 13 13 14 14 14 14 14 14 16 15 15 13 14 12 10 13 15 15 15 15 14 12 14 11
8 9 9 10 10 10 11 12 12 11 12 9 8 8 8 8 10 8 9 9 12 12 12 12 12 13 14 13 13 13 14 14 14 14 13 14 12 10 13 13 13 13 14 14 13 12 11
7 8 9 10 9 10 10 11 11 11 11 10 7 7 7 7 8 10 8 9 9 9 11 11 12 12 11 11 12 11 12 14 13 14 14 13 11 12 11 11 12 11 12 13 13 11 12
7 8 8 9 10 10 10 10 10 11 11 10 6 7 7 7 7 8 9 9 8 8 8 9 7 8 8 8 8 9 12 12 13 13 13 12 10 12 12 12 12 11 11 12 11 12 11
7 7 7 8 9 9 10 10 10 11 10 9 5 6 6 7 9 8 8 8 8 8 7 8 8 8 7 8 10 10 11 11 10 11 11 11 10 11 10 11 11 10 11 11 11 12 11
6 7 7 8 8 9 9 9 10 10 9 6 5 5 8 8 7 7 8 7 8 7 7 8 8 7 7 8 10 10 10 9 10 10 9 10 9 8 9 10 10 8 10 10 11 11 11
6 7 8 8 8 8 9 9 10 10 10 9 6 6 6 6 7 7 7 7 7 7 7 7 8 7 8 8 8 8 8 8 8 8 9 9 9 9 9 10 8 11 11 11 10 10 10
7 7 8 8 8 8 9 9 10 9 8 7 6 5 5 6 5 5 5 6 6 6 6 7 7 8 8 9 7 8 8 8 8 8 8 9 9 8 8 9 10 11 11 10 10 9 10
9 9 7 8 8 9 9 9 7 6 6 6 5 5 4 6 5 5 5 5 6 5 5 5 7 7 7 7 6 7 8 9 9 9 9 8 8 8 8 8 9 10 8 7 8 8 7
9 8 8 9 9 8 6 6 6 6 6 6 5 5 5 4 5 6 5 5 5 4 5 6 6 6 6 4 6 7 7 8 7 8 9 7 7 7 8 8 8 6 7 7 7 7 6
7 7 7 6 6 6 5 5 5 6 6 6 3 6 5 4 5 6 6 5 5 5 5 5 5 5 5 6 6 4 5 5 5 7 8 8 5 6 7 7 7 6 8 8 7 6 6
6 5 5 5 5 6 6 5 6 6 6 6 4 5 7 4 4 5 6 7 8 7 4 4 5 4 3 2 2 1 4 2 2 5 6 6 6 4 5 4 6 7 7 7 7 7 7

GFSGBSN_925_temp_201.txt.gz
Temp
14 14 14 14 15 15 15 15 15 15 15 15 15 15 15 15 16 16 16 16 17 17 17 17 17 17 17 17 19 22 22 23 23 23 22 22 22 22 22 22 22 22 23 23 23 23 22
15 15 14 14 15 15 15 15 15 15 15 15 15 15 15 15 15 15 16 16 17 18 18 17 17 17 16 18 21 21 22 23 23 23 22 22 22 22 22 22 22 22 22 23 23 24 22
15 15 15 14 14 14 15 15 15 15 15 15 15 15 15 15 16 15 15 16 17 18 18 17 17 15 14 19 21 21 22 23 22 22 23 22 22 23 22 23 21 22 22 23 23 23 24
15 15 14 15 15 15 15 15 15 15 15 15 15 15 15 15 15 15 15 16 18 18 17 17 16 14 16 19 20 20 22 22 22 22 22 22 22 22 22 22 22 22 21 23 24 23 23
15 15 15 14 14 15 15 15 15 15 15 15 15 15 15 14 15 15 15 16 18 18 17 16 14 14 17 19 20 20 20 21 22 22 23 21 21 21 21 21 21 20 23 21 22 22 23
15 15 15 15 15 15 15 15 15 15 15 15 15 14 14 14 15 15 15 17 19 17 17 15 14 15 18 19 19 20 20 20 21 20 22 21 19 20 19 21 22 22 21 21 21 23 23
15 15 15 15 15 15 15 15 15 15 15 15 15 14 14 14 14 14 15 17 15 16 15 17 18 17 18 17 18 18 19 19 20 20 20 18 20 21 21 20 20 20 20 20 21 21 20
15 15 15 15 15 15 15 15 15 15 15 15 15 14 14 14 14 14 14 14 15 14 13 14 14 14 15 15 16 18 18 19 19 19 18 19 19 19 19 18 19 19 19 20 20 20 20
14 15 15 15 15 15 15 15 15 15 16 15 15 14 14 13 14 13 14 14 14 14 13 14 15 15 17 16 17 18 19 19 19 18 18 19 20 18 19 19 18 18 18 19 20 20 20
14 14 14 15 15 15 15 15 15 15 15 15 15 14 13 13 13 13 14 15 15 14 14 16 18 18 16 16 18 18 19 20 19 19 18 18 19 19 19 19 19 19 19 19 19 19 21
13 13 14 14 14 14 15 15 15 15 15 15 15 14 13 13 14 13 15 15 15 14 15 19 18 19 18 18 19 20 20 20 19 19 19 20 19 19 20 20 19 21 20 19 20 20 18
12 12 13 13 13 14 14 15 15 15 15 15 15 14 13 12 12 14 15 15 15 14 15 18 19 18 18 18 19 19 20 19 19 19 18 18 18 19 20 20 19 20 20 19 16 18 19
11 11 12 12 13 13 14 14 15 15 15 15 14 14 13 12 11 13 13 12 12 13 17 18 18 18 18 18 18 19 19 19 19 19 18 18 19 19 19 20 19 19 19 19 19 18 19
10 11 11 11 12 13 13 13 14 14 15 15 15 13 13 12 12 12 11 11 13 15 17 17 17 17 18 18 18 18 17 18 16 17 17 18 18 19 19 19 20 18 19 19 18 19 19
9 10 11 11 11 12 12 13 13 14 14 14 14 12 10 10 11 10 11 12 16 15 17 17 17 17 17 17 17 17 17 17 16 17 19 16 17 17 18 18 19 18 18 18 17 16 17
8 9 10 10 11 11 11 12 12 13 13 13 11 9 9 10 10 9 12 15 15 17 16 16 17 18 16 16 16 16 17 16 16 16 16 16 16 16 17 18 18 19 18 17 16 16 16
7 8 8 9 10 11 11 11 12 12 13 12 8 9 8 9 9 10 12 14 15 15 16 16 17 17 17 15 16 15 17 15 16 15 15 15 15 15 16 17 17 17 17 17 16 16 16
7 7 8 8 9 10 11 11 11 12 12 10 8 10 7 8 10 9 11 13 13 13 13 14 13 16 16 15 14 15 16 16 16 15 15 14 13 14 15 16 15 15 16 16 15 15 14
7 7 7 8 8 10 11 11 11 11 11 9 9 8 8 9 10 9 10 11 12 12 12 12 12 14 14 14 14 14 14 14 14 14 13 14 13 13 14 14 14 14 14 14 14 13 12
6 7 7 7 8 9 9 10 10 11 11 10 8 7 7 7 8 11 11 10 10 9 11 12 12 13 12 12 12 12 13 13 13 14 14 15 13 13 13 14 14 13 14 14 13 10 11
6 7 7 7 8 8 9 10 10 10 10 10 7 7 7 8 8 9 11 10 9 10 10 10 8 10 10 9 9 8 9 9 11 13 13 12 10 12 13 13 13 13 13 13 12 13 12
6 6 7 7 7 8 8 9 10 10 11 10 6 7 7 8 10 9 9 9 10 10 9 8 8 8 8 8 9 8 8 8 9 11 11 11 9 11 11 12 12 12 12 12 12 12 12
6 6 6 7 7 7 7 8 9 10 10 7 5 6 9 8 8 8 9 10 10 9 7 8 7 7 7 7 8 7 8 8 8 8 9 8 8 9 10 12 11 10 11 12 12 13 13
6 6 6 6 6 7 7 8 8 9 10 9 6 6 8 8 8 8 9 9 9 9 8 6 7 7 7 8 7 7 7 7 8 8 10 9 10 10 10 10 9 13 12 12 11 12 12
6 6 6 6 6 6 7 7 8 9 10 9 7 6 7 7 7 7 8 7 7 6 5 5 5 7 7 6 7 7 7 7 8 9 9 10 10 9 9 10 11 12 12 11 11 11 8
5 5 5 6 6 6 7 7 7 9 9 9 6 8 6 6 6 6 6 6 6 6 5 5 6 7 7 6 7 7 8 10 9 10 9 9 9 9 9 9 9 11 9 9 9 9 8
5 5 5 6 6 6 7 7 8 8 9 6 5 7 5 4 5 6 6 6 5 6 6 5 6 6 6 6 7 8 8 9 9 9 8 7 7 8 8 8 10 9 9 8 9 9 9
5 5 5 6 6 6 7 8 8 8 7 7 4 5 5 3 3 5 5 4 4 5 6 5 5 5 5 6 7 7 7 8 7 8 9 9 8 8 8 8 8 8 9 9 9 9 9
8 6 6 6 6 7 8 8 6 5 6 6 3 4 5 3 3 3 4 5 6 6 5 4 6 6 6 5 5 5 5 4 5 7 7 7 8 8 7 9 7 7 8 8 9 8 8

GFSGBSN_925_temp_204.txt.gz
Temp
15 14 14 14 14 14 15 15 15 15 15 15 15 15 16 16 16 17 17 18 17 18 17 17 17 18 18 23 25 22 22 23 23 24 26 27 27 27 27 27 27 27 28 28 28 28 29
15 14 14 14 14 15 15 15 15 15 15 15 15 15 16 16 16 16 17 17 17 18 17 17 17 17 18 22 21 21 21 22 24 25 26 27 26 27 27 27 27 27 27 28 28 29 28
15 15 15 15 14 15 15 15 15 15 15 15 15 15 15 15 15 16 17 17 18 17 17 18 17 16 19 22 20 21 21 22 23 24 26 25 25 26 26 27 26 26 26 29 29 28 28
14 15 15 15 15 15 15 15 15 15 15 15 15 15 15 15 15 16 16 17 18 18 17 17 16 15 21 20 20 20 22 23 23 23 24 24 24 26 26 26 26 26 26 28 28 28 27
15 15 15 15 15 15 15 15 15 15 15 15 15 15 15 15 15 15 16 17 18 18 18 16 15 17 22 20 22 21 21 23 23 23 24 23 24 25 25 26 27 26 28 28 28 27 27
15 15 15 15 15 15 15 15 15 15 15 15 15 15 15 15 15 15 15 18 19 17 17 15 15 19 22 22 20 20 21 21 23 24 25 24 25 25 26 26 27 27 27 28 27 28 26
15 15 15 15 15 15 15 15 15 15 15 15 15 15 15 15 14 14 15 18 22 22 20 21 22 20 22 21 19 21 21 21 23 23 23 23 24 26 26 25 25 24 24 25 27 28 26
15 15 15 15 15 15 15 15 15 15 15 15 15 15 15 14 14 14 15 18 18 16 17 20 20 19 17 17 19 21 20 21 21 22 23 23 24 25 23 23 23 23 24 25 26 26 24
14 14 14 15 15 15 15 15 15 15 15 15 15 15 14 14 14 14 15 16 15 15 19 20 19 19 19 18 21 22 21 22 23 22 23 24 24 23 22 23 23 24 24 24 24 25 26
13 14 14 14 14 15 15 15 15 15 15 15 15 14 14 14 13 14 17 15 14 15 20 22 21 21 19 20 21 21 21 22 22 23 22 23 23 22 23 23 24 24 24 24 24 24 25
11 12 13 14 14 14 14 15 15 15 15 15 15 14 14 14 14 16 16 15 15 17 17 22 21 20 21 21 22 22 22 23 23 23 22 25 23 23 23 24 24 24 23 24 24 24 24
10 11 12 12 13 13 14 14 15 15 15 15 15 14 13 12 12 14 15 15 15 15 15 21 21 21 21 21 22 23 22 23 22 22 22 23 22 23 24 24 23 24 23 24 24 23 23
10 10 10 12 12 12 13 13 14 14 15 15 14 14 13 13 12 13 14 14 14 14 18 22 21 21 21 22 22 22 22 22 23 22 23 23 23 23 22 23 24 23 23 23 23 23 23
10 9 10 11 11 12 12 12 13 13 14 14 14 14 13 13 13 12 12 12 15 16 18 19 21 20 21 22 22 22 22 23 22 22 23 23 23 23 23 23 23 23 24 22 21 23 24
9 10 9 10 10 11 12 12 12 13 13 13 13 12 11 11 12 12 11 13 16 16 18 18 18 18 20 19 19 21 22 22 23 22 22 23 22 22 21 22 23 22 21 23 21 22 21
7 8 9 8 10 10 11 11 13 12 12 13 11 11 11 12 11 10 13 15 17 19 19 19 18 20 19 20 18 19 21 22 21 21 21 22 20 22 22 21 21 22 23 20 21 18 19
7 7 8 8 8 9 10 11 11 12 12 12 10 11 10 11 10 11 13 15 17 18 17 15 16 17 19 20 18 18 19 21 21 20 20 21 19 21 19 20 22 20 20 20 20 21 18
7 7 7 7 8 8 9 10 10 11 12 11 9 11 8 9 10 10 14 15 14 14 14 14 14 16 17 18 16 17 16 19 20 19 18 19 18 19 20 21 19 20 20 20 18 18 18
6 6 7 7 7 8 8 9 10 10 11 10 10 8 8 9 12 11 14 14 14 13 13 13 13 14 16 16 13 14 16 16 18 18 17 17 17 16 16 17 18 17 18 18 18 16 16
6 6 6 6 7 7 8 8 9 10 10 10 8 8 8 8 9 14 14 13 13 13 13 12 12 11 12 12 13 13 13 14 15 16 12 14 15 15 17 17 15 15 17 17 16 14 14
6 6 6 6 6 7 7 8 9 9 10 10 7 7 9 8 9 12 15 14 13 10 11 12 10 12 12 11 11 10 10 10 9 11 12 11 11 14 15 15 15 15 15 15 14 13 12
6 6 6 6 6 7 7 8 8 9 10 10 6 7 7 10 12 10 12 12 14 15 10 9 10 12 12 11 11 10 9 9 10 10 10 10 11 12 11 13 14 14 15 15 15 15 15
6 6 6 6 6 6 7 7 8 8 9 10 6 6 9 9 10 10 10 12 13 14 10 12 11 11 9 10 10 9 10 10 10 9 9 9 10 10 11 14 13 12 14 14 15 15 14
6 6 6 6 6 6 7 7 8 8 9 9 7 7 9 8 10 10 11 12 13 12 12 8 8 9 8 9 7 7 7 8 8 8 8 9 9 9 11 13 10 15 15 15 15 15 15
6 6 6 6 6 6 7 7 7 8 8 9 7 7 9 8 10 10 10 11 11 11 6 6 6 8 9 7 7 8 8 8 8 8 9 8 9 10 10 12 14 15 15 15 14 14 12
6 6 6 6 6 6 6 6 7 7 8 9 8 7 8 7 8 11 9 9 7 6 5 5 6 7 7 7 8 9 10 12 11 10 11 9 9 9 10 10 12 14 12 12 12 12 12
5 6 6 6 6 6 6 6 6 7 7 7 8 8 7 6 7 8 8 8 6 6 6 5 6 6 6 8 9 10 10 12 10 11 9 9 9 9 11 10 13 15 12 12 10 12 11
5 5 5 5 6 6 6 6 6 7 7 7 6 7 8 4 3 6 6 6 6 6 7 4 6 5 6 8 9 9 10 11 11 12 11 11 10 10 10 10 10 12 11 10 12 11 12
5 5 5 5 5 5 5 6 6 6 7 7 4 5 6 3 2 3 3 4 7 9 6 5 7 9 9 9 9 9 9 8 10 10 10 10 12 12 11 12 11 11 11 12 12 12 12

GFSGBSN_925_temp_207.txt.gz
Temp
15 14 15 15 15 15 15 15 15 15 15 15 15 16 15 16 16 17 17 18 18 18 18 18 18 19 19 26 28 24 23 24 24 26 28 29 29 30 30 32 31 30 31 32 31 31 31
15 15 14 15 15 15 15 15 15 15 15 15 15 15 15 15 16 16 17 18 18 18 18 18 18 18 20 24 25 24 24 25 26 27 28 29 29 30 29 30 30 32 31 31 32 32 32
15 15 15 15 15 15 15 15 15 15 15 15 15 15 15 15 15 16 17 18 19 18 18 19 18 17 22 25 24 24 24 25 25 26 28 28 28 28 30 29 31 30 29 31 32 32 31
15 14 14 15 15 15 15 15 15 15 15 15 15 15 15 15 15 16 17 18 19 19 19 19 17 18 24 23 23 23 25 25 25 26 26 27 27 28 28 30 29 29 30 30 32 31 31
15 15 15 14 15 15 15 15 15 15 15 15 15 15 15 15 15 16 17 18 20 19 19 19 17 21 26 23 25 24 24 26 25 26 26 26 27 27 29 27 29 30 30 31 32 32 31
15 15 15 15 15 15 14 15 15 15 15 15 15 15 15 15 15 15 16 19 20 19 19 17 20 23 25 26 24 23 23 24 25 26 26 27 27 26 28 29 29 30 30 30 31 31 29
15 15 15 15 15 15 15 15 14 15 15 14 15 15 15 15 15 15 16 21 24 24 23 24 24 24 25 24 23 23 24 24 24 25 24 27 25 27 30 29 29 28 28 28 30 31 29
15 15 15 15 15 15 15 15 15 15 15 15 15 15 15 14 15 15 16 21 21 20 19 23 24 23 22 21 23 24 23 24 24 24 26 25 24 29 27 27 26 27 27 28 30 30 29
15 15 15 15 15 15 15 15 15 15 15 14 15 15 14 14 14 15 18 20 19 18 20 25 24 23 23 22 24 25 25 25 25 24 25 26 28 26 26 26 26 28 28 28 27 28 29
14 14 15 15 15 15 15 15 15 15 15 14 14 14 14 14 14 18 19 19 18 17 22 25 24 24 22 23 23 24 23 24 23 24 24 25 27 25 26 27 27 27 28 27 27 27 27
12 13 14 14 14 14 14 15 15 14 15 15 14 14 14 15 16 19 18 18 17 18 19 26 24 23 24 24 25 25 25 25 25 26 25 27 26 25 25 27 27 26 27 26 26 26 26
9 10 12 13 13 14 14 15 15 14 14 15 15 14 13 12 14 17 17 16 17 18 17 24 24 23 23 24 25 25 25 25 25 25 26 26 27 25 26 27 26 26 26 26 27 27 25
9 8 9 10 12 13 13 14 14 14 14 14 14 14 13 15 16 16 15 15 15 16 19 24 24 23 24 25 24 25 25 24 25 25 26 27 27 27 26 25 26 26 25 24 26 27 27
8 8 8 9 10 11 12 13 13 13 14 14 14 13 13 13 13 14 14 13 15 17 19 21 24 24 24 25 25 25 24 25 26 25 25 25 25 27 27 24 25 26 26 24 23 24 26
7 7 8 7 9 9 10 11 12 13 13 13 13 12 12 12 12 13 12 14 17 17 20 20 21 22 24 25 23 25 24 25 26 27 24 24 25 26 25 26 25 25 24 26 24 24 24
6 7 7 7 7 8 10 10 11 12 12 12 10 10 11 12 12 11 13 15 17 20 19 20 19 20 22 23 24 23 24 25 25 26 25 23 22 25 26 24 24 24 26 23 23 20 21
6 6 6 7 7 8 9 10 10 11 11 12 11 11 12 12 11 12 14 16 18 20 20 18 18 19 19 22 22 22 23 24 25 24 24 23 22 22 24 22 23 24 22 23 23 23 22
6 6 6 6 7 7 8 9 11 10 10 11 9 12 10 10 12 12 14 17 18 17 19 19 16 17 18 19 19 19 20 21 22 21 19 20 18 19 21 24 25 23 23 24 22 21 22
6 6 6 7 7 7 7 8 9 10 10 10 10 10 9 10 13 12 17 16 17 16 15 17 15 17 19 18 16 15 17 17 18 17 16 18 17 18 20 22 23 22 22 22 22 22 20
6 6 6 7 7 7 7 7 8 9 9 10 8 9 9 9 10 15 15 15 15 15 16 16 15 14 14 13 14 13 14 15 16 18 13 16 16 17 19 19 17 18 20 21 20 19 18
5 5 6 6 6 6 7 7 7 8 8 9 8 8 9 9 10 12 15 15 15 14 15 15 12 13 14 12 12 11 13 10 11 13 14 13 12 15 17 18 18 18 18 18 18 18 17
5 5 5 6 6 6 6 7 7 8 8 9 8 8 8 10 14 12 12 15 14 15 12 11 14 14 14 12 13 12 12 10 11 10 11 11 12 14 15 16 17 16 17 17 16 16 16
5 5 5 6 6 6 6 7 7 7 8 9 10 7 10 11 12 12 12 14 15 15 12 15 13 13 12 13 14 13 12 10 11 11 10 10 11 11 13 16 15 14 15 17 17 18 17
5 5 5 5 6 6 6 6 7 7 7 9 7 9 10 10 11 12 13 14 14 15 15 12 11 11 10 9 8 7 8 9 10 10 12 10 11 11 13 14 12 16 19 18 17 18 18
5 5 5 6 6 6 6 6 6 7 7 7 7 8 9 11 11 12 12 14 15 14 11 9 10 11 8 7 7 8 8 8 8 9 9 10 10 11 11 13 16 17 17 16 16 16 18
5 5 5 6 6 6 6 6 6 7 7 7 8 7 8 9 9 12 12 13 12 10 6 5 6 8 7 6 8 10 11 13 11 11 9 9 11 10 11 11 13 16 16 16 16 14 17
5 5 5 6 6 6 6 6 6 7 7 7 8 8 8 8 7 11 11 11 10 8 7 5 7 7 7 8 9 11 11 14 13 12 10 10 9 10 11 11 13 17 16 15 12 14 14
5 5 5 5 6 6 6 6 6 7 7 7 7 8 7 8 5 6 8 8 7 8 7 4 6 5 6 9 10 11 12 13 14 15 13 12 11 11 11 11 11 16 14 13 15 14 14
5 5 5 5 5 6 6 6 6 7 7 7 7 6 6 4 3 3 3 4 8 10 7 5 8 6 7 9 9 9 9 10 12 11 15 12 14 14 13 14 14 15 15 15 14 14 14